Location: Clover
(42.5131°N, 114.6874°W)
Time: 13:30:42
(UTC+00:00)

Transit 2A Rocket - Pass Details

Date: 08 November 2024
Orbit: 585 x 904 km, 66.7° (Epoch: 02 December)

Event Time Altitude Azimuth Distance (km) Brightness Sun altitude
Rises 02:04:52 0° 333° (NNW) 3,307 8.6 -18.9°
Reaches altitude 10° 02:07:33 10° 341° (NNW) 2,319 7.6 -19.4°
Maximum altitude 02:12:30 40° 51° (NE) 1,067 5.3 -20.3°
Enters shadow 02:12:37 39° 54° (NE) 1,066 5.3 -20.3°
